| time (UTC) | temp F | wind direction | speed MPH | gust MPH | rain 1hr in | rain 24hr in | rain mn in | humidity % | barometer mb |
| 20260510173042 | 69 | 0 | 2.0 | 4.0 | 0.00 | 0.00 | 0.00 | 37 | 1019.4 |
| 20260510171601 | 66 | 296 | 2.0 | 5.0 | 0.00 | 0.00 | 0.00 | 39 | 1019.5 |
| 20260510170038 | 65 | 0 | 1.0 | 4.0 | 0.00 | 0.00 | 0.00 | 47 | 1019.6 |
| 20260510164548 | 63 | 188 | 2.0 | 4.0 | 0.00 | 0.00 | 0.00 | 47 | 1019.7 |
| 20260510163047 | 62 | 259 | 1.0 | 4.0 | 0.00 | 0.00 | 0.00 | 43 | 1019.8 |
| 20260510161544 | 61 | 0 | 0.0 | 2.0 | 0.00 | 0.00 | 0.00 | 45 | 1019.9 |
| 20260510160052 | 59 | 207 | 1.0 | 3.0 | 0.00 | 0.00 | 0.00 | 49 | 1020.1 |
| 20260510154558 | 58 | 208 | 1.0 | 4.0 | 0.00 | 0.00 | 0.00 | 49 | 1020.0 |
| 20260510153059 | 57 | 0 | 0.0 | 0.0 | 0.00 | 0.00 | 0.00 | 51 | 1020.0 |
| 20260510151546 | 55 | 0 | 0.0 | 1.0 | 0.00 | 0.00 | 0.00 | 49 | 1020.2 |
| 20260510150106 | 53 | 0 | 0.0 | 0.0 | 0.00 | 0.00 | 0.00 | 52 | 1020.2 |
| 20260510144611 | 52 | 0 | 0.0 | 0.0 | 0.00 | 0.00 | 0.00 | 56 | 1020.3 |
| 20260510143043 | 50 | 0 | 0.0 | 0.0 | 0.00 | 0.00 | 0.00 | 57 | 1020.2 |
| 20260510141544 | 48 | 0 | 0.0 | 0.0 | 0.00 | 0.00 | 0.00 | 59 | 1020.2 |
| 20260510140046 | 46 | 0 | 0.0 | 0.0 | 0.00 | 0.00 | 0.00 | 62 | 1020.2 |
| 20260510134550 | 44 | 0 | 0.0 | 0.0 | 0.00 | 0.00 | 0.00 | 63 | 1020.2 |
| 20260510133040 | 43 | 0 | 0.0 | 0.0 | 0.00 | 0.00 | 0.00 | 71 | 1020.2 |
| 20260510131539 | 43 | 0 | 0.0 | 0.0 | 0.00 | 0.00 | 0.00 | 70 | 1020.2 |
| 20260510130049 | 43 | 0 | 0.0 | 0.0 | 0.00 | 0.00 | 0.00 | 68 | 1020.0 |
| 20260510124547 | 43 | 0 | 0.0 | 0.0 | 0.00 | 0.00 | 0.00 | 70 | 1020.2 |
| 20260510123050 | 43 | 0 | 0.0 | 0.0 | 0.00 | 0.00 | 0.00 | 69 | 1020.2 |
| 20260510121540 | 44 | 0 | 0.0 | 0.0 | 0.00 | 0.00 | 0.00 | 66 | 1020.2 |
| 20260510120039 | 44 | 0 | 0.0 | 0.0 | 0.00 | 0.00 | 0.00 | 63 | 1020.2 |
| 20260510114539 | 44 | 0 | 0.0 | 0.0 | 0.00 | 0.00 | 0.00 | 67 | 1020.1 |
| 20260510113044 | 44 | 0 | 0.0 | 0.0 | 0.00 | 0.00 | 0.00 | 66 | 1020.1 |
| 20260510111549 | 45 | 0 | 0.0 | 0.0 | 0.00 | 0.00 | 0.00 | 61 | 1020.0 |
| 20260510110042 | 45 | 0 | 0.0 | 0.0 | 0.00 | 0.00 | 0.00 | 66 | 1020.0 |
| 20260510104555 | 46 | 0 | 0.0 | 0.0 | 0.00 | 0.00 | 0.00 | 65 | 1019.9 |
| 20260510103047 | 46 | 0 | 0.0 | 0.0 | 0.00 | 0.00 | 0.00 | 63 | 1019.8 |
| 20260510101550 | 46 | 0 | 0.0 | 0.0 | 0.00 | 0.00 | 0.00 | 66 | 1019.8 |
| 20260510100051 | 46 | 0 | 0.0 | 0.0 | 0.00 | 0.00 | 0.00 | 65 | 1019.8 |
| 20260510094544 | 47 | 0 | 0.0 | 0.0 | 0.00 | 0.00 | 0.00 | 65 | 1019.8 |
| 20260510093046 | 47 | 0 | 0.0 | 0.0 | 0.00 | 0.00 | 0.00 | 65 | 1019.7 |
| 20260510091539 | 48 | 0 | 0.0 | 0.0 | 0.00 | 0.00 | 0.00 | 68 | 1019.7 |
| 20260510090046 | 49 | 0 | 0.0 | 0.0 | 0.00 | 0.00 | 0.00 | 59 | 1019.7 |
| 20260510084558 | 50 | 0 | 0.0 | 0.0 | 0.00 | 0.00 | 0.00 | 53 | 1019.7 |
| 20260510083051 | 51 | 0 | 0.0 | 0.0 | 0.00 | 0.00 | 0.00 | 55 | 1019.8 |
| 20260510081552 | 51 | 0 | 0.0 | 0.0 | 0.00 | 0.00 | 0.00 | 55 | 1019.7 |
| 20260510080043 | 52 | 0 | 0.0 | 0.0 | 0.00 | 0.00 | 0.00 | 56 | 1019.8 |
| 20260510074541 | 53 | 0 | 0.0 | 0.0 | 0.00 | 0.00 | 0.00 | 53 | 1019.8 |
| 20260510073050 | 53 | 0 | 0.0 | 0.0 | 0.00 | 0.00 | 0.00 | 48 | 1019.8 |
| 20260510071543 | 53 | 0 | 0.0 | 0.0 | 0.00 | 0.00 | 0.00 | 51 | 1019.8 |
| 20260510070043 | 53 | 0 | 0.0 | 0.0 | 0.00 | 0.00 | 0.00 | 53 | 1019.8 |
| 20260510064539 | 56 | 0 | 0.0 | 0.0 | 0.00 | 0.00 | 0.00 | 50 | 1019.7 |
| 20260510063040 | 56 | 0 | 0.0 | 0.0 | 0.00 | 0.00 | 0.00 | 47 | 1019.6 |
| 20260510061555 | 57 | 0 | 0.0 | 0.0 | 0.00 | 0.00 | 0.00 | 45 | 1019.4 |
| 20260510060047 | 58 | 0 | 0.0 | 0.0 | 0.00 | 0.00 | 0.00 | 45 | 1019.3 |
| 20260510054539 | 59 | 0 | 0.0 | 0.0 | 0.00 | 0.00 | 0.00 | 39 | 1019.4 |
| 20260510053101 | 60 | 0 | 0.0 | 3.0 | 0.00 | 0.00 | 0.00 | 43 | 1019.4 |
| 20260510051546 | 62 | 0 | 0.0 | 4.0 | 0.00 | 0.00 | 0.00 | 39 | 1019.3 |
| 20260510050045 | 62 | 0 | 0.0 | 0.0 | 0.00 | 0.00 | 0.00 | 38 | 1019.2 |
| 20260510044542 | 62 | 0 | 0.0 | 0.0 | 0.00 | 0.00 | 0.00 | 41 | 1019.2 |
| 20260510043041 | 63 | 0 | 0.0 | 0.0 | 0.00 | 0.00 | 0.00 | 40 | 1019.0 |
| 20260510041546 | 65 | 0 | 0.0 | 0.0 | 0.00 | 0.00 | 0.00 | 39 | 1018.8 |
| 20260510040048 | 65 | 0 | 0.0 | 0.0 | 0.00 | 0.00 | 0.00 | 37 | 1018.7 |
| 20260510034552 | 66 | 0 | 0.0 | 0.0 | 0.00 | 0.00 | 0.00 | 36 | 1018.5 |
| 20260510033039 | 67 | 0 | 0.0 | 0.0 | 0.00 | 0.00 | 0.00 | 35 | 1018.1 |
| 20260510031554 | 68 | 0 | 0.0 | 1.0 | 0.00 | 0.00 | 0.00 | 35 | 1017.9 |
| 20260510030048 | 69 | 0 | 0.0 | 2.0 | 0.00 | 0.00 | 0.00 | 34 | 1017.7 |
| 20260510024545 | 71 | 227 | 1.0 | 4.0 | 0.00 | 0.00 | 0.00 | 34 | 1017.5 |
| 20260510023044 | 75 | 238 | 2.0 | 5.0 | 0.00 | 0.00 | 0.00 | 30 | 1017.4 |
| 20260510021539 | 79 | 0 | 1.0 | 6.0 | 0.00 | 0.00 | 0.00 | 20 | 1017.3 |
| 20260510020038 | 79 | 0 | 0.0 | 5.0 | 0.00 | 0.00 | 0.00 | 21 | 1017.3 |
| 20260510014546 | 80 | 352 | 2.0 | 5.0 | 0.00 | 0.00 | 0.00 | 16 | 1017.2 |
| 20260510013048 | 80 | 351 | 2.0 | 5.0 | 0.00 | 0.00 | 0.00 | 18 | 1017.4 |
| 20260510011544 | 81 | 300 | 1.0 | 8.0 | 0.00 | 0.00 | 0.00 | 16 | 1017.4 |
| 20260510010036 | 81 | 290 | 3.0 | 9.0 | 0.00 | 0.00 | 0.00 | 16 | 1017.4 |
| 20260510004545 | 81 | 0 | 3.0 | 8.0 | 0.00 | 0.00 | 0.00 | 19 | 1017.6 |
| 20260510003041 | 81 | 0 | 1.0 | 7.0 | 0.00 | 0.00 | 0.00 | 17 | 1017.5 |
| 20260510001546 | 81 | 319 | 4.0 | 10.0 | 0.00 | 0.00 | 0.00 | 17 | 1017.6 |
| 20260510000046 | 81 | 215 | 2.0 | 7.0 | 0.00 | 0.00 | 0.00 | 20 | 1017.7 |
| 20260509234546 | 80 | 216 | 2.0 | 11.0 | 0.00 | 0.00 | 0.00 | 18 | 1017.7 |
| 20260509233043 | 81 | 246 | 5.0 | 9.0 | 0.00 | 0.00 | 0.00 | 19 | 1017.7 |
| 20260509231538 | 81 | 323 | 2.0 | 5.0 | 0.00 | 0.00 | 0.00 | 18 | 1017.9 |
| 20260509230047 | 80 | 5 | 2.0 | 6.0 | 0.00 | 0.00 | 0.00 | 18 | 1018.0 |
| 20260509224547 | 80 | 340 | 0.0 | 7.0 | 0.00 | 0.00 | 0.00 | 18 | 1018.2 |
| 20260509223042 | 80 | 44 | 2.0 | 8.0 | 0.00 | 0.00 | 0.00 | 18 | 1018.3 |
| 20260509221539 | 78 | 180 | 1.0 | 10.0 | 0.00 | 0.00 | 0.00 | 22 | 1018.5 |
| 20260509220052 | 77 | 252 | 3.0 | 12.0 | 0.00 | 0.00 | 0.00 | 23 | 1018.8 |
| 20260509214546 | 77 | 272 | 5.0 | 11.0 | 0.00 | 0.00 | 0.00 | 27 | 1019.1 |
| 20260509213044 | 77 | 237 | 6.0 | 13.0 | 0.00 | 0.00 | 0.00 | 24 | 1019.2 |
| 20260509211546 | 76 | 190 | 5.0 | 10.0 | 0.00 | 0.00 | 0.00 | 25 | 1019.3 |
| 20260509210041 | 76 | 291 | 3.0 | 8.0 | 0.00 | 0.00 | 0.00 | 23 | 1019.3 |
| 20260509204552 | 75 | 261 | 4.0 | 13.0 | 0.00 | 0.00 | 0.00 | 27 | 1019.5 |
| 20260509203043 | 75 | 251 | 4.0 | 10.0 | 0.00 | 0.00 | 0.00 | 28 | 1019.7 |
| 20260509201544 | 75 | 192 | 2.0 | 10.0 | 0.00 | 0.00 | 0.00 | 28 | 1019.7 |
| 20260509200044 | 74 | 189 | 3.0 | 8.0 | 0.00 | 0.00 | 0.00 | 29 | 1019.8 |
| 20260509194539 | 73 | 302 | 3.0 | 9.0 | 0.00 | 0.00 | 0.00 | 30 | 1020.2 |
| 20260509193047 | 72 | 207 | 3.0 | 11.0 | 0.00 | 0.00 | 0.00 | 29 | 1020.5 |
| 20260509191546 | 73 | 337 | 3.0 | 5.0 | 0.00 | 0.00 | 0.00 | 27 | 1020.6 |
| 20260509190053 | 72 | 313 | 2.0 | 9.0 | 0.00 | 0.00 | 0.00 | 29 | 1020.8 |
| 20260509184558 | 71 | 309 | 3.0 | 12.0 | 0.00 | 0.00 | 0.00 | 31 | 1021.0 |
| 20260509183040 | 71 | 0 | 0.0 | 5.0 | 0.00 | 0.00 | 0.00 | 30 | 1021.1 |
| 20260509181545 | 70 | 226 | 1.0 | 9.0 | 0.00 | 0.00 | 0.00 | 31 | 1021.3 |
| 20260509180046 | 70 | 337 | 2.0 | 5.0 | 0.00 | 0.00 | 0.00 | 33 | 1021.4 |
| 20260509174546 | 69 | 0 | 2.0 | 6.0 | 0.00 | 0.00 | 0.00 | 34 | 1021.6 |